weather.gov     
National Weather Service

Terminal Aerodrome Forecast
NWS Homepage
This page is being discontinued on March 12, 2014.
The same data is available at this site. Please update your bookmarks.
Thank you, and we apologize for the inconvenience.
Please send an email to SR-SRH.Webmaster@noaa.gov with any concerns.


Current Version
Previous Version:    01  02  03  04  05  06  07  08  09  10  11  12  13  14  15  16  17  18  19  20  21  22  23  24  25  26  27  28  29  30  
   31  32  33  34  35  36  37  38  39  40  41  
[Printable]
981
FTUS41 KBTV 280900 AAA
TAFBTV
TAF AMD
KBTV 280908Z 2809/2906 02004KT P6SM VCFG SCT015 BKN025
     FM281100 01004KT 3SM RA BR VCTS OVC025CB
      TEMPO 2811/2812 VRB15G25KT 1 1/2SM +TSRA BKN015CB
     FM281400 36007KT 3SM -RA BR VCTS OVC020CB
     FM290000 33007KT 3SM -SHRA BR OVC020=


U.S. Dept. of Commerce
NOAA National Weather Service
1325 East West Highway
Silver Spring, MD 20910
E-mail: w-nws.webmaster@noaa.gov
Page last modified: May 16, 2007
NATIONAL WEATHER SERVICE: for Safety, for Work, for Fun - FOR LIFE